GW2242 Weather Reports


time (UTC)temp
C
wind
direction
speed
KPH
gust
KPH
rain 1hr
cm
rain 24hr
cm
rain mn
cm
humidity
%
barometer
mb
20260510174827 22 188 0.0 0.0 0.00 0.00 0.00 63 1012.4
20260510174326 23 178 1.6 1.6 0.00 0.00 0.00 63 1012.5
20260510173821 23 250 1.6 3.2 0.00 0.00 0.00 67 1012.5
20260510173318 22 225 1.6 3.2 0.00 0.00 0.00 68 1012.2
20260510172814 22 56 6.4 11.3 0.00 0.00 0.00 63 1012.6
20260510172310 21 92 1.6 3.2 0.00 0.00 0.00 67 1012.6
20260510171806 21 347 4.8 4.8 0.00 0.00 0.00 66 1012.4
20260510171303 21 251 3.2 3.2 0.00 0.00 0.00 69 1012.2
20260510170755 21 54 4.8 4.8 0.00 0.00 0.00 67 1012.4
20260510170251 21 55 1.6 3.2 0.00 0.00 0.00 68 1012.4
20260510165746 21 176 1.6 3.2 0.00 0.00 0.00 69 1012.6
20260510165243 21 216 0.0 1.6 0.00 0.00 0.00 71 1012.4
20260510164740 21 192 3.2 3.2 0.00 0.00 0.00 68 1012.5
20260510164237 20 314 1.6 1.6 0.00 0.00 0.00 71 1012.6
20260510163732 20 122 1.6 3.2 0.00 0.00 0.00 71 1012.5
20260510163228 20 63 1.6 1.6 0.00 0.00 0.00 73 1012.8
20260510162728 20 55 1.6 3.2 0.00 0.00 0.00 72 1012.8
20260510162225 20 251 3.2 3.2 0.00 0.00 0.00 71 1012.9
20260510161721 20 250 1.6 3.2 0.00 0.00 0.00 71 1012.7
20260510161217 19 232 1.6 1.6 0.00 0.00 0.00 73 1012.9
20260510160715 18 86 3.2 3.2 0.00 0.00 0.00 75 1012.7
20260510160209 18 204 1.6 1.6 0.00 0.00 0.00 75 1012.9
20260510155706 18 275 1.6 3.2 0.00 0.00 0.00 76 1013.1
20260510155202 18 266 4.8 8.0 0.00 0.00 0.00 77 1013.2
20260510154658 18 201 1.6 1.6 0.00 0.00 0.00 79 1013.5
20260510154154 17 184 6.4 8.0 0.00 0.00 0.00 82 1013.1
20260510153649 16 152 0.0 0.0 0.00 0.00 0.00 83 1013.1
20260510153146 16 63 1.6 3.2 0.00 0.00 0.00 83 1013.3
20260510152642 16 199 0.0 1.6 0.00 0.00 0.00 83 1013.3
20260510152138 16 254 3.2 3.2 0.00 0.00 0.00 84 1013.5
20260510151635 16 214 1.6 1.6 0.00 0.00 0.00 85 1013.3
20260510151133 15 43 1.6 1.6 0.00 0.00 0.00 86 1013.2
20260510150628 15 151 3.2 3.2 0.00 0.00 0.00 85 1013.2
20260510150124 15 221 0.0 0.0 0.00 0.00 0.00 86 1013.2
20260510145621 15 221 0.0 1.6 0.00 0.00 0.00 87 1013.0
20260510145118 15 221 0.0 0.0 0.00 0.00 0.00 87 1013.1
20260510144613 15 165 0.0 0.0 0.00 0.00 0.00 89 1013.2
20260510144110 14 157 3.2 3.2 0.00 0.00 0.00 90 1013.4
20260510143605 14 251 3.2 3.2 0.00 0.00 0.00 92 1013.1
20260510143102 14 206 0.0 0.0 0.00 0.00 0.00 93 1013.3
20260510142559 13 228 0.0 0.0 0.00 0.00 0.00 94 1013.1
20260510142055 13 0 1.6 1.6 0.00 0.00 0.00 95 1013.1
20260510141552 13 235 0.0 1.6 0.00 0.00 0.00 96 1013.2
20260510141050 13 210 0.0 1.6 0.00 0.00 0.00 96 1013.0
20260510140546 13 174 3.2 3.2 0.00 0.00 0.00 97 1013.1
20260510140045 13 266 1.6 3.2 0.00 0.00 0.00 97 1013.0
20260510135541 13 215 0.0 1.6 0.00 0.00 0.00 97 1013.1
20260510135038 12 196 1.6 1.6 0.00 0.00 0.00 98 1013.0
20260510134535 12 152 0.0 0.0 0.00 0.00 0.00 98 1013.1
20260510134032 12 190 1.6 1.6 0.00 0.00 0.00 98 1013.0
20260510133527 12 209 1.6 1.6 0.00 0.00 0.00 98 1013.1
20260510133024 12 183 0.0 0.0 0.00 0.00 0.00 98 1013.3
20260510132521 12 207 0.0 1.6 0.00 0.00 0.00 98 1013.1
20260510132017 12 189 0.0 0.0 0.00 0.00 0.00 98 1013.4
20260510131515 12 213 0.0 1.6 0.00 0.00 0.00 98 1013.3
20260510131012 12 282 0.0 1.6 0.00 0.00 0.00 99 1013.2
20260510130508 12 228 1.6 1.6 0.00 0.00 0.00 99 1012.9
20260510130006 12 189 0.0 1.6 0.00 0.00 0.00 99 1012.8
20260510125502 12 188 3.2 3.2 0.00 0.00 0.00 99 1012.8
20260510124958 12 216 0.0 0.0 0.00 0.00 0.00 99 1012.9
20260510124455 12 154 3.2 3.2 0.00 0.00 0.00 99 1012.6
20260510123952 12 208 0.0 0.0 0.00 0.00 0.00 99 1012.4
20260510123447 12 198 1.6 1.6 0.00 0.00 0.00 99 1012.6
20260510122944 12 186 3.2 3.2 0.00 0.00 0.00 99 1012.3
20260510122439 12 160 1.6 3.2 0.00 0.00 0.00 99 1012.3
20260510121935 11 174 0.0 0.0 0.00 0.00 0.00 99 1012.3
20260510121433 11 213 1.6 1.6 0.00 0.00 0.00 99 1012.5
20260510120930 11 218 0.0 0.0 0.00 0.00 0.00 99 1012.4
20260510120427 11 196 0.0 0.0 0.00 0.00 0.00 99 1012.4
20260510115923 11 202 0.0 0.0 0.00 0.00 0.00 99 1012.1
20260510115421 11 219 0.0 0.0 0.00 0.00 0.00 99 1012.3
20260510114916 11 219 0.0 0.0 0.00 0.00 0.00 99 1012.4
20260510114413 11 219 0.0 0.0 0.00 0.00 0.00 99 1012.2
20260510113908 11 219 0.0 0.0 0.00 0.00 0.00 99 1012.3
20260510113404 11 215 0.0 0.0 0.00 0.00 0.00 99 1012.3
20260510112902 11 211 0.0 0.0 0.00 0.00 0.00 99 1012.3
20260510112359 11 192 0.0 0.0 0.00 0.00 0.00 99 1012.2
20260510111855 11 203 0.0 0.0 0.00 0.00 0.00 99 1012.1
20260510111351 11 219 0.0 0.0 0.00 0.00 0.00 99 1012.0
20260510110847 11 187 1.6 3.2 0.00 0.00 0.00 99 1012.1
20260510110343 11 185 0.0 0.0 0.00 0.00 0.00 99 1011.9
20260510105840 11 201 0.0 0.0 0.00 0.00 0.00 99 1011.8
20260510105339 11 187 0.0 0.0 0.00 0.00 0.00 99 1011.9
20260510104836 11 184 0.0 0.0 0.00 0.00 0.00 99 1011.7
20260510104333 11 224 0.0 0.0 0.00 0.00 0.00 99 1011.6
20260510103829 11 243 0.0 1.6 0.00 0.00 0.00 99 1011.7
20260510103326 11 195 0.0 0.0 0.00 0.00 0.00 99 1011.6
20260510102822 10 194 0.0 0.0 0.00 0.00 0.00 99 1011.4
20260510102317 10 200 0.0 0.0 0.00 0.00 0.00 99 1011.5
20260510101815 10 201 0.0 0.0 0.00 0.00 0.00 99 1011.6
20260510101313 10 190 0.0 0.0 0.00 0.00 0.00 99 1011.4
20260510100809 10 190 0.0 0.0 0.00 0.00 0.00 99 1011.7
20260510100307 10 198 0.0 0.0 0.00 0.00 0.00 99 1011.7
20260510095802 10 198 0.0 0.0 0.00 0.00 0.00 99 1011.7
20260510095257 10 198 0.0 0.0 0.00 0.00 0.00 99 1011.6
20260510094756 10 203 0.0 0.0 0.00 0.00 0.00 99 1011.5
20260510094252 10 202 0.0 0.0 0.00 0.00 0.00 99 1011.8
20260510093748 10 204 0.0 0.0 0.00 0.00 0.00 99 1011.8
20260510093245 10 180 0.0 0.0 0.00 0.00 0.00 99 1011.5
20260510092741 10 180 0.0 0.0 0.00 0.00 0.00 99 1011.7
20260510092237 10 143 0.0 0.0 0.00 0.00 0.00 99 1012.0
20260510091733 10 179 0.0 0.0 0.00 0.00 0.00 99 1011.6
20260510091231 10 26 4.8 4.8 0.00 0.00 0.00 99 1011.8
20260510090726 10 162 0.0 0.0 0.00 0.00 0.00 99 1011.9
20260510090224 10 74 3.2 3.2 0.00 0.00 0.00 99 1012.0
20260510085719 10 237 4.8 4.8 0.00 0.00 0.00 99 1012.0
20260510085214 10 34 3.2 4.8 0.00 0.00 0.00 99 1011.7
20260510084710 10 59 1.6 3.2 0.00 0.00 0.00 99 1011.9
20260510084208 11 354 1.6 3.2 0.00 0.00 0.00 99 1011.8
20260510083704 11 3 4.8 4.8 0.00 0.00 0.00 99 1011.7
20260510083201 11 186 0.0 0.0 0.00 0.00 0.00 99 1011.2
20260510082656 11 186 0.0 0.0 0.00 0.00 0.00 99 1011.0
20260510082153 10 189 0.0 0.0 0.00 0.00 0.00 99 1011.0
20260510081647 10 189 0.0 0.0 0.00 0.00 0.00 99 1011.1
20260510081144 11 164 1.6 1.6 0.00 0.00 0.00 99 1011.1
20260510080643 11 187 0.0 0.0 0.00 0.00 0.00 99 1011.1
20260510080140 11 204 0.0 0.0 0.00 0.00 0.00 99 1011.1
20260510075637 11 177 0.0 0.0 0.00 0.00 0.00 98 1011.1
20260510075134 11 166 0.0 0.0 0.00 0.00 0.00 98 1011.0
20260510074631 11 193 0.0 0.0 0.00 0.00 0.00 98 1011.1
20260510074127 11 203 0.0 0.0 0.00 0.00 0.00 98 1011.0
20260510073623 11 184 0.0 0.0 0.00 0.00 0.00 98 1010.9
20260510073120 11 206 0.0 0.0 0.00 0.00 0.00 98 1010.8
20260510072616 11 341 0.0 1.6 0.00 0.00 0.00 98 1010.8
20260510072113 11 188 0.0 0.0 0.00 0.00 0.00 98 1010.8
20260510071608 11 182 0.0 0.0 0.00 0.00 0.00 98 1010.9
20260510071106 11 64 0.0 1.6 0.00 0.00 0.00 98 1010.8
20260510070558 11 28 1.6 1.6 0.00 0.00 0.00 98 1011.0
20260510070055 10 341 1.6 1.6 0.00 0.00 0.00 98 1010.6
20260510065551 10 15 1.6 3.2 0.00 0.00 0.00 98 1010.9
20260510065047 10 353 1.6 1.6 0.00 0.00 0.00 98 1010.7
20260510064543 10 243 0.0 1.6 0.00 0.00 0.00 98 1010.6
20260510064040 10 216 0.0 0.0 0.00 0.00 0.00 98 1010.6
20260510063537 10 216 0.0 0.0 0.00 0.00 0.00 98 1010.6
20260510063035 10 216 0.0 0.0 0.00 0.00 0.00 98 1010.5
20260510062530 10 216 0.0 0.0 0.00 0.00 0.00 98 1010.5
20260510062026 10 216 0.0 0.0 0.00 0.00 0.00 98 1010.5
20260510061522 10 216 0.0 0.0 0.00 0.00 0.00 98 1010.4
20260510061019 10 216 0.0 0.0 0.00 0.00 0.00 98 1010.8
20260510060516 10 216 0.0 0.0 0.00 0.00 0.00 98 1010.6
20260510060012 10 216 0.0 0.0 0.00 0.00 0.00 98 1010.5
20260510055508 10 216 0.0 0.0 0.00 0.00 0.00 98 1010.9
20260510055006 10 216 0.0 0.0 0.00 0.00 0.00 98 1010.7
20260510054501 10 216 0.0 0.0 0.00 0.00 0.00 98 1010.9
20260510053956 10 216 0.0 0.0 0.00 0.00 0.00 98 1010.9
20260510053451 9 216 0.0 0.0 0.00 0.00 0.00 98 1010.8
20260510052948 9 216 0.0 0.0 0.00 0.00 0.00 98 1010.8
20260510052444 9 216 0.0 0.0 0.00 0.00 0.00 98 1010.8
20260510051941 9 216 0.0 0.0 0.00 0.00 0.00 98 1010.9
20260510051437 9 216 0.0 0.0 0.00 0.00 0.00 98 1011.0
20260510050933 9 216 0.0 0.0 0.00 0.00 0.00 98 1010.9
20260510050430 9 216 0.0 0.0 0.00 0.00 0.00 98 1011.0
20260510045928 8 216 0.0 0.0 0.00 0.00 0.00 98 1011.0
20260510045425 8 216 0.0 0.0 0.00 0.00 0.00 98 1011.0
20260510044921 8 216 0.0 0.0 0.00 0.00 0.00 98 1010.9
20260510044418 8 216 0.0 0.0 0.00 0.00 0.00 98 1011.1
20260510043915 8 216 0.0 0.0 0.00 0.00 0.00 98 1011.0
20260510043411 8 216 0.0 0.0 0.00 0.00 0.00 97 1010.9
20260510042909 8 216 0.0 0.0 0.00 0.00 0.00 98 1011.1
20260510042405 8 216 0.0 0.0 0.00 0.00 0.00 97 1011.1
20260510041901 8 216 0.0 0.0 0.00 0.00 0.00 97 1011.0
20260510041358 8 216 0.0 0.0 0.00 0.00 0.00 97 1011.1
20260510040855 8 216 0.0 0.0 0.00 0.00 0.00 97 1010.9
20260510040352 8 216 0.0 0.0 0.00 0.00 0.00 97 1010.9
20260510035848 8 216 0.0 0.0 0.00 0.03 0.03 97 1010.9
20260510035344 8 216 0.0 0.0 0.00 0.03 0.03 97 1010.9
20260510034839 8 216 0.0 0.0 0.00 0.03 0.03 97 1011.1
20260510034338 8 216 0.0 0.0 0.00 0.03 0.03 97 1010.8
20260510033834 8 216 0.0 0.0 0.00 0.03 0.03 97 1010.8
20260510033330 8 216 0.0 0.0 0.00 0.03 0.03 97 1010.6
20260510032827 9 216 0.0 0.0 0.00 0.03 0.03 97 1010.9
20260510032324 8 216 0.0 0.0 0.00 0.03 0.03 97 1010.9
20260510031820 8 216 0.0 0.0 0.00 0.03 0.03 97 1010.8
20260510031315 9 216 0.0 0.0 0.00 0.03 0.03 97 1010.5
20260510030809 9 216 0.0 0.0 0.00 0.03 0.03 97 1010.9
20260510030306 9 216 0.0 0.0 0.00 0.03 0.03 97 1010.9
20260510025804 9 216 0.0 0.0 0.00 0.03 0.03 97 1010.6
20260510025301 9 216 0.0 0.0 0.00 0.03 0.03 97 1010.8
20260510024757 9 216 0.0 0.0 0.00 0.03 0.03 97 1010.6
20260510024254 10 216 0.0 0.0 0.00 0.03 0.03 96 1010.5
20260510023749 10 216 0.0 0.0 0.00 0.03 0.03 96 1010.5
20260510023242 10 216 0.0 0.0 0.00 0.03 0.03 96 1010.6
20260510022737 10 216 0.0 0.0 0.00 0.03 0.03 96 1010.5
20260510022232 10 216 0.0 0.0 0.00 0.03 0.03 96 1010.6
20260510021726 10 216 0.0 0.0 0.00 0.03 0.03 96 1010.5
20260510021225 10 216 0.0 0.0 0.00 0.03 0.03 96 1010.5
20260510020725 10 216 0.0 0.0 0.00 0.03 0.03 96 1010.9
20260510020220 10 216 0.0 0.0 0.00 0.03 0.03 96 1010.7
20260510015716 10 216 0.0 0.0 0.00 0.03 0.03 96 1010.5
20260510015212 10 216 0.0 0.0 0.00 0.03 0.03 96 1010.8
20260510014708 10 216 0.0 0.0 0.00 0.03 0.03 96 1010.5
20260510014205 10 216 0.0 0.0 0.00 0.03 0.03 96 1010.8
20260510013700 10 216 0.0 0.0 0.00 0.03 0.03 95 1010.5
20260510013156 10 216 0.0 0.0 0.00 0.03 0.03 95 1010.5
20260510012656 10 216 0.0 0.0 0.00 0.03 0.03 95 1010.5
20260510012151 11 216 0.0 0.0 0.00 0.03 0.03 95 1010.4
20260510011647 11 216 0.0 0.0 0.00 0.03 0.03 95 1010.5
20260510011143 11 216 0.0 0.0 0.00 0.03 0.03 95 1010.6
20260510010638 11 216 0.0 0.0 0.00 0.03 0.03 95 1010.6
20260510010136 11 216 0.0 0.0 0.00 0.03 0.03 95 1010.2
20260510005631 11 216 0.0 0.0 0.00 0.03 0.03 94 1010.2
20260510005129 11 216 0.0 0.0 0.00 0.03 0.03 94 1010.2
20260510004627 11 216 0.0 0.0 0.00 0.03 0.03 94 1010.5
20260510004125 11 216 0.0 0.0 0.00 0.03 0.03 94 1010.2
20260510003622 11 216 0.0 0.0 0.00 0.03 0.03 94 1010.1
20260510003118 11 216 0.0 0.0 0.00 0.03 0.03 93 1010.0
20260510002612 12 216 0.0 0.0 0.00 0.03 0.03 93 1010.3
20260510002109 12 216 0.0 0.0 0.00 0.03 0.03 93 1010.2
20260510001606 12 216 0.0 0.0 0.00 0.03 0.03 93 1010.1
20260510001106 12 216 0.0 0.0 0.00 0.03 0.03 92 1009.8
20260510000605 12 216 0.0 0.0 0.00 0.03 0.03 92 1010.2
20260509235559 12 216 0.0 0.0 0.00 0.03 0.03 91 1010.0
20260509235055 12 216 0.0 0.0 0.00 0.03 0.03 90 1009.9
20260509234551 13 216 0.0 0.0 0.00 0.03 0.03 90 1010.2
20260509234050 13 215 0.0 0.0 0.00 0.03 0.03 90 1010.0
20260509233547 13 216 0.0 0.0 0.00 0.03 0.03 89 1010.0
20260509233044 13 216 0.0 0.0 0.00 0.03 0.03 89 1009.9
20260509232540 13 207 0.0 0.0 0.00 0.03 0.03 89 1009.6
20260509232037 13 208 0.0 0.0 0.00 0.03 0.03 89 1009.5
20260509231533 13 195 1.6 3.2 0.00 0.03 0.03 89 1009.9
20260509231032 13 170 1.6 1.6 0.00 0.03 0.03 88 1009.8
20260509230528 13 193 3.2 3.2 0.00 0.03 0.03 88 1009.7
20260509230025 13 169 0.0 0.0 0.00 0.03 0.03 88 1009.7
20260509225520 13 174 1.6 3.2 0.00 0.03 0.03 88 1009.9
20260509225016 13 157 0.0 0.0 0.00 0.03 0.03 87 1010.1
20260509224512 13 201 0.0 0.0 0.00 0.03 0.03 88 1009.9
20260509224009 13 190 1.6 1.6 0.00 0.03 0.03 88 1009.9
20260509223506 13 190 0.0 0.0 0.00 0.03 0.03 89 1009.8
20260509223004 13 198 1.6 3.2 0.00 0.03 0.03 88 1009.9
20260509222459 13 174 0.0 1.6 0.00 0.03 0.03 89 1010.1
20260509221955 13 173 0.0 0.0 0.00 0.03 0.03 89 1010.3
20260509221451 13 223 0.0 0.0 0.00 0.03 0.03 90 1010.0
20260509220948 13 159 1.6 1.6 0.00 0.03 0.03 90 1010.0
20260509220444 13 198 3.2 3.2 0.00 0.03 0.03 90 1010.4
20260509215939 13 180 1.6 1.6 0.00 0.03 0.03 90 1010.1
20260509215435 13 182 0.0 0.0 0.00 0.03 0.03 90 1010.6
20260509214933 13 178 0.0 0.0 0.00 0.03 0.03 89 1010.6
20260509214430 13 191 0.0 0.0 0.00 0.03 0.03 88 1010.7
20260509213927 13 190 0.0 0.0 0.00 0.03 0.03 87 1010.9
20260509213422 13 195 0.0 0.0 0.00 0.03 0.03 86 1010.6
20260509212920 13 178 0.0 0.0 0.00 0.03 0.03 85 1010.5
20260509212418 14 192 0.0 0.0 0.00 0.03 0.03 85 1010.6
20260509211914 14 189 0.0 0.0 0.00 0.03 0.03 82 1010.7
20260509211410 14 210 1.6 1.6 0.00 0.03 0.03 81 1010.9
20260509210906 14 280 1.6 3.2 0.00 0.03 0.03 81 1010.4
20260509210403 14 268 1.6 1.6 0.00 0.03 0.03 80 1010.1
20260509205858 14 159 0.0 0.0 0.00 0.03 0.03 79 1010.1
20260509205352 14 78 1.6 1.6 0.00 0.03 0.03 79 1010.2
20260509204849 14 68 0.0 1.6 0.00 0.03 0.03 78 1010.5
20260509204345 15 236 3.2 4.8 0.00 0.03 0.03 78 1010.1
20260509203841 15 354 3.2 3.2 0.00 0.03 0.03 78 1010.3
20260509203333 15 207 3.2 3.2 0.00 0.03 0.03 78 1010.2
20260509202830 14 23 3.2 3.2 0.00 0.03 0.03 78 1010.4
20260509202326 15 78 1.6 3.2 0.00 0.03 0.03 77 1010.2
20260509201825 15 247 4.8 4.8 0.00 0.03 0.03 78 1010.4
20260509201322 15 276 6.4 8.0 0.00 0.03 0.03 79 1010.3
20260509200819 15 243 3.2 3.2 0.00 0.03 0.03 80 1010.4
20260509200314 15 239 1.6 1.6 0.00 0.03 0.03 80 1010.4
20260509195811 15 18 9.7 11.3 0.00 0.03 0.03 79 1010.3
20260509195307 15 150 1.6 1.6 0.00 0.03 0.03 78 1010.4
20260509194805 15 40 3.2 4.8 0.00 0.03 0.03 78 1010.3
20260509194301 15 48 3.2 4.8 0.00 0.03 0.03 78 1010.3
20260509193758 15 32 6.4 8.0 0.00 0.03 0.03 78 1010.6
20260509193252 15 318 9.7 14.5 0.00 0.03 0.03 77 1010.8
20260509192749 15 330 4.8 8.0 0.00 0.03 0.03 77 1010.8
20260509192244 15 215 8.0 9.7 0.00 0.03 0.03 77 1010.5
20260509191740 15 275 4.8 8.0 0.00 0.03 0.03 76 1010.4
20260509191236 15 262 0.0 1.6 0.00 0.03 0.03 77 1010.5
20260509190732 15 56 3.2 3.2 0.00 0.03 0.03 77 1010.6
20260509190230 15 356 8.0 14.5 0.00 0.03 0.03 76 1010.6
20260509185727 15 219 4.8 8.0 0.00 0.03 0.03 76 1010.7
20260509185223 15 358 3.2 3.2 0.00 0.03 0.03 77 1010.6
20260509184721 15 19 4.8 4.8 0.00 0.03 0.03 77 1010.5
20260509184218 15 222 1.6 3.2 0.00 0.03 0.03 78 1010.4
20260509183714 15 14 3.2 4.8 0.00 0.03 0.03 78 1010.5
20260509183209 15 17 3.2 3.2 0.00 0.03 0.03 77 1010.5
20260509182705 15 36 3.2 3.2 0.13 0.03 0.03 77 1010.3
20260509182203 15 42 3.2 3.2 0.13 0.03 0.03 79 1010.5
20260509181700 15 32 3.2 3.2 0.00 0.00 0.00 78 1010.9
20260509181158 15 210 0.0 0.0 0.00 0.00 0.00 79 1010.9
20260509180654 16 229 1.6 1.6 0.00 0.00 0.00 77 1010.9
20260509180150 16 250 4.8 4.8 0.00 0.00 0.00 74 1010.7
20260509175647 17 162 4.8 4.8 0.00 0.00 0.00 70 1010.8